datum;grugatrasse_r�ttenscheid_west;grugatrasse_ruhr_ost;huyssenallee_r�ttenscheid_s�d;huyssenallee_stadtkern_nord
01.10.2022 00:00;0;3;3;4
01.10.2022 01:00;1;5;7;3
01.10.2022 02:00;0;3;2;1
01.10.2022 03:00;0;1;1;4
01.10.2022 04:00;0;0;1;7
01.10.2022 05:00;1;0;2;0
01.10.2022 06:00;1;0;0;4
01.10.2022 07:00;3;0;3;4
01.10.2022 08:00;6;4;5;4
01.10.2022 09:00;4;4;0;7
01.10.2022 10:00;4;21;5;10
01.10.2022 11:00;11;14;6;5
01.10.2022 12:00;16;13;7;20
01.10.2022 13:00;15;17;16;10
01.10.2022 14:00;17;17;6;17
01.10.2022 15:00;14;12;8;13
01.10.2022 16:00;19;24;14;16
01.10.2022 17:00;23;16;18;15
01.10.2022 18:00;42;26;21;15
01.10.2022 19:00;21;5;15;12
01.10.2022 20:00;4;1;12;11
01.10.2022 21:00;4;6;6;9
01.10.2022 22:00;2;2;7;6
01.10.2022 23:00;1;0;3;5
02.10.2022 00:00;0;5;0;7
02.10.2022 01:00;1;1;6;3
02.10.2022 02:00;0;0;3;3
02.10.2022 03:00;1;1;2;0
02.10.2022 04:00;1;0;0;0
02.10.2022 05:00;0;0;1;4
02.10.2022 06:00;2;1;2;5
02.10.2022 07:00;1;3;0;1
02.10.2022 08:00;10;12;4;5
02.10.2022 09:00;9;14;1;10
02.10.2022 10:00;42;23;9;15
02.10.2022 11:00;29;28;9;13
02.10.2022 12:00;25;51;19;21
02.10.2022 13:00;58;52;6;16
02.10.2022 14:00;46;43;14;14
02.10.2022 15:00;67;50;9;21
02.10.2022 16:00;40;45;16;13
02.10.2022 17:00;44;41;18;15
02.10.2022 18:00;36;38;16;21
02.10.2022 19:00;19;20;8;16
02.10.2022 20:00;8;4;3;13
02.10.2022 21:00;7;1;12;2
02.10.2022 22:00;2;6;4;5
02.10.2022 23:00;1;3;4;1
03.10.2022 00:00;4;0;2;8
03.10.2022 01:00;0;0;2;2
03.10.2022 02:00;3;1;2;3
03.10.2022 03:00;0;0;0;2
03.10.2022 04:00;0;0;1;1
03.10.2022 05:00;0;0;2;1
03.10.2022 06:00;3;1;2;4
03.10.2022 07:00;5;1;0;1
03.10.2022 08:00;7;13;2;6
03.10.2022 09:00;35;25;3;8
03.10.2022 10:00;50;64;8;28
03.10.2022 11:00;143;136;6;14
03.10.2022 12:00;146;150;16;28
03.10.2022 13:00;157;169;27;20
03.10.2022 14:00;164;133;21;42
03.10.2022 15:00;152;113;21;18
03.10.2022 16:00;106;86;25;38
03.10.2022 17:00;78;62;20;23
03.10.2022 18:00;63;66;13;11
03.10.2022 19:00;25;16;11;10
03.10.2022 20:00;11;9;13;8
03.10.2022 21:00;6;5;5;9
03.10.2022 22:00;2;0;3;3
03.10.2022 23:00;0;0;3;2
04.10.2022 00:00;0;0;0;1
04.10.2022 01:00;0;1;0;1
04.10.2022 02:00;0;0;0;0
04.10.2022 03:00;0;1;0;0
04.10.2022 04:00;0;2;1;3
04.10.2022 05:00;14;5;7;6
04.10.2022 06:00;59;27;18;25
04.10.2022 07:00;90;34;29;63
04.10.2022 08:00;92;31;24;63
04.10.2022 09:00;42;28;11;42
04.10.2022 10:00;48;46;11;31
04.10.2022 11:00;68;68;20;31
04.10.2022 12:00;53;61;34;30
04.10.2022 13:00;70;96;28;33
04.10.2022 14:00;86;107;34;28
04.10.2022 15:00;85;115;40;33
04.10.2022 16:00;118;137;67;33
04.10.2022 17:00;94;140;60;49
04.10.2022 18:00;78;81;67;38
04.10.2022 19:00;30;30;23;18
04.10.2022 20:00;8;17;19;9
04.10.2022 21:00;2;8;8;13
04.10.2022 22:00;2;3;6;5
04.10.2022 23:00;0;3;2;3
05.10.2022 00:00;0;0;2;0
05.10.2022 01:00;0;0;4;1
05.10.2022 02:00;0;0;1;0
05.10.2022 03:00;0;1;0;0
05.10.2022 04:00;0;1;0;3
05.10.2022 05:00;16;13;5;8
05.10.2022 06:00;68;29;20;28
05.10.2022 07:00;94;35;22;45
05.10.2022 08:00;91;27;24;86
05.10.2022 09:00;49;19;21;52
05.10.2022 10:00;56;48;13;20
05.10.2022 11:00;77;58;21;34
05.10.2022 12:00;58;71;30;24
05.10.2022 13:00;62;77;33;23
05.10.2022 14:00;92;98;43;31
05.10.2022 15:00;85;134;43;39
05.10.2022 16:00;148;162;59;40
05.10.2022 17:00;134;168;76;51
05.10.2022 18:00;88;97;59;35
05.10.2022 19:00;65;39;35;25
05.10.2022 20:00;17;17;15;12
05.10.2022 21:00;3;7;10;7
05.10.2022 22:00;2;7;13;8
05.10.2022 23:00;1;2;6;6
06.10.2022 00:00;0;0;1;0
06.10.2022 01:00;0;1;1;2
06.10.2022 02:00;0;0;2;0
06.10.2022 03:00;0;0;3;2
06.10.2022 04:00;0;2;0;2
06.10.2022 05:00;14;5;5;7
06.10.2022 06:00;62;36;13;34
06.10.2022 07:00;87;35;26;59
06.10.2022 08:00;93;40;24;73
06.10.2022 09:00;62;29;13;35
06.10.2022 10:00;55;65;11;23
06.10.2022 11:00;50;86;18;20
06.10.2022 12:00;85;91;18;39
06.10.2022 13:00;85;87;31;31
06.10.2022 14:00;98;110;35;32
06.10.2022 15:00;102;127;44;40
06.10.2022 16:00;113;139;63;48
06.10.2022 17:00;107;118;62;53
06.10.2022 18:00;97;86;46;37
06.10.2022 19:00;45;60;20;15
06.10.2022 20:00;14;19;21;22
06.10.2022 21:00;3;9;14;11
06.10.2022 22:00;5;8;10;7
06.10.2022 23:00;0;2;2;4
07.10.2022 00:00;1;1;2;6
07.10.2022 01:00;0;0;2;2
07.10.2022 02:00;0;0;2;1
07.10.2022 03:00;0;1;1;2
07.10.2022 04:00;0;3;0;2
07.10.2022 05:00;8;4;4;11
07.10.2022 06:00;58;22;15;21
07.10.2022 07:00;85;28;19;40
07.10.2022 08:00;65;31;12;44
07.10.2022 09:00;51;23;22;32
07.10.2022 10:00;35;55;23;31
07.10.2022 11:00;74;64;29;33
07.10.2022 12:00;84;57;27;28
07.10.2022 13:00;69;98;29;32
07.10.2022 14:00;85;136;39;39
07.10.2022 15:00;99;139;36;37
07.10.2022 16:00;99;129;56;33
07.10.2022 17:00;99;116;50;34
07.10.2022 18:00;71;82;34;41
07.10.2022 19:00;39;46;20;25
07.10.2022 20:00;11;12;20;21
07.10.2022 21:00;17;14;13;7
07.10.2022 22:00;3;14;10;8
07.10.2022 23:00;7;2;6;4
08.10.2022 00:00;2;1;9;4
08.10.2022 01:00;0;4;1;2
08.10.2022 02:00;0;2;4;2
08.10.2022 03:00;1;2;2;5
08.10.2022 04:00;0;3;4;0
08.10.2022 05:00;3;4;6;1
08.10.2022 06:00;3;1;3;2
08.10.2022 07:00;6;2;3;4
08.10.2022 08:00;10;8;6;6
08.10.2022 09:00;22;23;4;12
08.10.2022 10:00;28;15;14;20
08.10.2022 11:00;38;32;20;21
08.10.2022 12:00;57;49;21;14
08.10.2022 13:00;47;46;17;15
08.10.2022 14:00;52;81;14;29
08.10.2022 15:00;48;59;17;28
08.10.2022 16:00;66;47;14;21
08.10.2022 17:00;50;39;24;25
08.10.2022 18:00;28;28;23;28
08.10.2022 19:00;12;8;19;18
08.10.2022 20:00;7;4;14;21
08.10.2022 21:00;1;6;13;8
08.10.2022 22:00;2;13;9;10
08.10.2022 23:00;7;6;5;7
09.10.2022 00:00;2;3;8;4
09.10.2022 01:00;1;1;1;1
09.10.2022 02:00;0;2;1;4
09.10.2022 03:00;1;1;2;1
09.10.2022 04:00;0;1;0;1
09.10.2022 05:00;2;0;2;0
09.10.2022 06:00;0;3;0;2
09.10.2022 07:00;6;3;3;3
09.10.2022 08:00;14;24;7;4
09.10.2022 09:00;34;35;14;9
09.10.2022 10:00;70;56;11;13
09.10.2022 11:00;123;119;16;17
09.10.2022 12:00;162;167;15;19
09.10.2022 13:00;166;190;22;38
09.10.2022 14:00;165;188;29;26
09.10.2022 15:00;170;140;22;23
09.10.2022 16:00;135;118;22;19
09.10.2022 17:00;145;89;28;23
09.10.2022 18:00;80;51;17;24
09.10.2022 19:00;17;24;15;10
09.10.2022 20:00;8;10;10;10
09.10.2022 21:00;6;2;10;5
09.10.2022 22:00;1;8;8;4
09.10.2022 23:00;4;0;5;1
10.10.2022 00:00;0;0;1;0
10.10.2022 01:00;0;0;0;0
10.10.2022 02:00;0;0;1;1
10.10.2022 03:00;1;1;0;1
10.10.2022 04:00;1;1;0;2
10.10.2022 05:00;14;10;6;9
10.10.2022 06:00;62;28;16;28
10.10.2022 07:00;101;44;26;68
10.10.2022 08:00;67;19;22;56
10.10.2022 09:00;33;25;17;38
10.10.2022 10:00;50;48;19;21
10.10.2022 11:00;63;66;27;24
10.10.2022 12:00;73;73;21;33
10.10.2022 13:00;86;65;27;28
10.10.2022 14:00;57;89;29;37
10.10.2022 15:00;76;89;48;30
10.10.2022 16:00;92;130;61;34
10.10.2022 17:00;74;117;64;38
10.10.2022 18:00;40;45;49;26
10.10.2022 19:00;16;14;19;16
10.10.2022 20:00;11;13;16;11
10.10.2022 21:00;6;5;8;3
10.10.2022 22:00;4;1;7;2
10.10.2022 23:00;0;1;4;5
11.10.2022 00:00;0;1;1;0
11.10.2022 01:00;0;0;0;1
11.10.2022 02:00;0;0;1;0
11.10.2022 03:00;0;0;0;0
11.10.2022 04:00;0;1;1;3
11.10.2022 05:00;18;10;4;7
11.10.2022 06:00;73;23;20;36
11.10.2022 07:00;109;43;21;69
11.10.2022 08:00;79;19;16;81
11.10.2022 09:00;36;34;15;54
11.10.2022 10:00;66;44;17;23
11.10.2022 11:00;71;60;14;26
11.10.2022 12:00;62;70;30;30
11.10.2022 13:00;49;69;34;30
11.10.2022 14:00;68;84;41;30
11.10.2022 15:00;104;103;42;30
11.10.2022 16:00;95;135;69;40
11.10.2022 17:00;99;144;61;49
11.10.2022 18:00;65;92;60;36
11.10.2022 19:00;29;23;34;23
11.10.2022 20:00;12;10;16;9
11.10.2022 21:00;8;3;17;2
11.10.2022 22:00;1;2;13;9
11.10.2022 23:00;0;1;6;2
12.10.2022 00:00;0;1;2;4
12.10.2022 01:00;0;0;1;1
12.10.2022 02:00;0;0;1;0
12.10.2022 03:00;1;0;0;0
12.10.2022 04:00;0;2;0;3
12.10.2022 05:00;16;8;4;11
12.10.2022 06:00;67;27;15;28
12.10.2022 07:00;86;44;26;54
12.10.2022 08:00;88;28;12;86
12.10.2022 09:00;40;23;12;52
12.10.2022 10:00;38;51;19;23
12.10.2022 11:00;60;62;21;27
12.10.2022 12:00;50;78;28;31
12.10.2022 13:00;81;89;32;23
12.10.2022 14:00;102;89;41;32
12.10.2022 15:00;83;150;50;32
12.10.2022 16:00;97;134;63;48
12.10.2022 17:00;109;150;66;48
12.10.2022 18:00;73;71;58;33
12.10.2022 19:00;33;21;30;12
12.10.2022 20:00;13;13;16;6
12.10.2022 21:00;5;7;15;8
12.10.2022 22:00;0;2;12;6
12.10.2022 23:00;2;1;8;2
13.10.2022 00:00;1;0;3;1
13.10.2022 01:00;0;1;0;1
13.10.2022 02:00;0;1;1;0
13.10.2022 03:00;0;0;1;0
13.10.2022 04:00;0;2;1;2
13.10.2022 05:00;14;3;3;5
13.10.2022 06:00;47;21;13;18
13.10.2022 07:00;76;30;23;46
13.10.2022 08:00;68;28;12;54
13.10.2022 09:00;38;22;11;51
13.10.2022 10:00;19;26;13;21
13.10.2022 11:00;36;30;17;14
13.10.2022 12:00;28;34;18;30
13.10.2022 13:00;29;38;22;19
13.10.2022 14:00;32;46;22;15
13.10.2022 15:00;31;44;29;27
13.10.2022 16:00;35;65;34;29
13.10.2022 17:00;37;47;53;23
13.10.2022 18:00;17;40;35;28
13.10.2022 19:00;14;24;17;15
13.10.2022 20:00;3;9;8;11
13.10.2022 21:00;2;3;9;9
13.10.2022 22:00;1;2;7;5
13.10.2022 23:00;1;2;6;6
14.10.2022 00:00;1;0;5;1
14.10.2022 01:00;0;0;0;2
14.10.2022 02:00;0;1;0;0
14.10.2022 03:00;0;0;0;0
14.10.2022 04:00;0;2;0;1
14.10.2022 05:00;8;4;3;9
14.10.2022 06:00;38;16;7;18
14.10.2022 07:00;39;15;17;29
14.10.2022 08:00;32;24;14;47
14.10.2022 09:00;36;18;11;34
14.10.2022 10:00;24;14;14;19
14.10.2022 11:00;28;31;10;16
14.10.2022 12:00;25;29;24;22
14.10.2022 13:00;26;33;28;17
14.10.2022 14:00;19;34;23;22
14.10.2022 15:00;21;35;24;21
14.10.2022 16:00;22;49;40;22
14.10.2022 17:00;30;36;29;23
14.10.2022 18:00;23;22;24;25
14.10.2022 19:00;19;18;29;33
14.10.2022 20:00;8;6;9;8
14.10.2022 21:00;1;8;14;11
14.10.2022 22:00;1;3;10;6
14.10.2022 23:00;0;5;15;6
15.10.2022 00:00;1;2;7;5
15.10.2022 01:00;3;2;10;0
15.10.2022 02:00;1;0;0;2
15.10.2022 03:00;2;1;0;2
15.10.2022 04:00;2;2;1;3
15.10.2022 05:00;1;5;2;6
15.10.2022 06:00;3;3;3;6
15.10.2022 07:00;8;2;6;3
15.10.2022 08:00;8;16;6;5
15.10.2022 09:00;22;22;6;11
15.10.2022 10:00;29;39;14;18
15.10.2022 11:00;86;75;19;21
15.10.2022 12:00;62;60;28;24
15.10.2022 13:00;29;33;20;26
15.10.2022 14:00;27;33;29;30
15.10.2022 15:00;29;36;9;19
15.10.2022 16:00;27;40;25;12
15.10.2022 17:00;24;34;23;11
15.10.2022 18:00;19;11;26;11
15.10.2022 19:00;9;11;14;15
15.10.2022 20:00;6;7;8;16
15.10.2022 21:00;7;3;6;4
15.10.2022 22:00;2;0;11;0
15.10.2022 23:00;3;4;9;7
16.10.2022 00:00;2;2;3;3
16.10.2022 01:00;1;2;4;5
16.10.2022 02:00;0;2;1;2
16.10.2022 03:00;1;1;1;0
16.10.2022 04:00;0;0;0;0
16.10.2022 05:00;1;0;5;2
16.10.2022 06:00;0;2;2;1
16.10.2022 07:00;2;6;2;2
16.10.2022 08:00;8;14;4;5
16.10.2022 09:00;31;29;4;7
16.10.2022 10:00;50;88;10;16
16.10.2022 11:00;83;104;12;18
16.10.2022 12:00;175;143;18;23
16.10.2022 13:00;150;182;16;31
16.10.2022 14:00;144;137;44;30
16.10.2022 15:00;138;141;32;39
16.10.2022 16:00;115;98;19;36
16.10.2022 17:00;103;69;18;20
16.10.2022 18:00;47;46;11;10
16.10.2022 19:00;12;20;19;8
16.10.2022 20:00;13;6;4;5
16.10.2022 21:00;1;5;4;7
16.10.2022 22:00;2;2;4;4
16.10.2022 23:00;3;1;1;1
17.10.2022 00:00;0;0;4;1
17.10.2022 01:00;0;0;1;0
17.10.2022 02:00;0;0;0;0
17.10.2022 03:00;0;1;0;0
17.10.2022 04:00;0;1;0;2
17.10.2022 05:00;14;8;5;8
17.10.2022 06:00;69;29;18;27
17.10.2022 07:00;110;54;26;80
17.10.2022 08:00;93;43;24;85
17.10.2022 09:00;47;31;13;38
17.10.2022 10:00;34;36;15;27
17.10.2022 11:00;59;51;17;35
17.10.2022 12:00;60;68;36;34
17.10.2022 13:00;48;51;26;21
17.10.2022 14:00;49;52;38;28
17.10.2022 15:00;46;61;44;31
17.10.2022 16:00;68;104;68;28
17.10.2022 17:00;50;79;60;39
17.10.2022 18:00;33;52;48;14
17.10.2022 19:00;19;21;22;20
17.10.2022 20:00;5;8;11;9
17.10.2022 21:00;6;6;7;4
17.10.2022 22:00;3;2;10;3
17.10.2022 23:00;0;2;3;1
18.10.2022 00:00;1;1;2;2
18.10.2022 01:00;0;0;1;0
18.10.2022 02:00;0;0;1;0
18.10.2022 03:00;0;1;0;0
18.10.2022 04:00;2;0;0;2
18.10.2022 05:00;10;7;5;9
18.10.2022 06:00;43;23;13;22
18.10.2022 07:00;113;46;25;86
18.10.2022 08:00;86;38;25;87
18.10.2022 09:00;42;24;19;46
18.10.2022 10:00;36;25;15;26
18.10.2022 11:00;39;42;19;25
18.10.2022 12:00;29;42;23;33
18.10.2022 13:00;50;67;33;27
18.10.2022 14:00;76;79;43;27
18.10.2022 15:00;75;82;54;22
18.10.2022 16:00;100;113;62;48
18.10.2022 17:00;90;138;83;60
18.10.2022 18:00;78;74;74;46
18.10.2022 19:00;28;23;37;14
18.10.2022 20:00;11;10;25;14
18.10.2022 21:00;6;8;18;5
18.10.2022 22:00;3;4;12;6
18.10.2022 23:00;1;4;5;3
19.10.2022 00:00;0;0;2;3
19.10.2022 01:00;0;0;0;1
19.10.2022 02:00;0;0;1;0
19.10.2022 03:00;0;1;1;0
19.10.2022 04:00;0;0;0;3
19.10.2022 05:00;22;10;5;10
19.10.2022 06:00;97;31;25;34
19.10.2022 07:00;128;74;27;78
19.10.2022 08:00;109;45;34;89
19.10.2022 09:00;67;31;16;64
19.10.2022 10:00;59;67;12;28
19.10.2022 11:00;54;64;23;30
19.10.2022 12:00;71;96;25;31
19.10.2022 13:00;83;89;36;22
19.10.2022 14:00;122;132;37;39
19.10.2022 15:00;97;132;52;41
19.10.2022 16:00;107;191;68;67
19.10.2022 17:00;111;147;77;52
19.10.2022 18:00;87;68;70;41
19.10.2022 19:00;47;41;38;13
19.10.2022 20:00;23;12;20;17
19.10.2022 21:00;10;14;17;12
19.10.2022 22:00;5;7;11;10
19.10.2022 23:00;3;2;6;9
20.10.2022 00:00;0;3;4;5
20.10.2022 01:00;0;0;0;2
20.10.2022 02:00;0;0;0;0
20.10.2022 03:00;0;1;1;0
20.10.2022 04:00;1;0;0;3
20.10.2022 05:00;9;9;9;7
20.10.2022 06:00;76;23;15;28
20.10.2022 07:00;114;62;35;84
20.10.2022 08:00;89;38;26;80
20.10.2022 09:00;54;26;9;45
20.10.2022 10:00;22;33;16;26
20.10.2022 11:00;49;38;17;24
20.10.2022 12:00;49;47;31;35
20.10.2022 13:00;29;40;24;23
20.10.2022 14:00;24;46;36;20
20.10.2022 15:00;50;56;33;42
20.10.2022 16:00;49;88;62;49
20.10.2022 17:00;53;87;67;49
20.10.2022 18:00;45;57;50;38
20.10.2022 19:00;26;25;29;26
20.10.2022 20:00;9;18;30;10
20.10.2022 21:00;6;9;16;10
20.10.2022 22:00;4;12;10;7
20.10.2022 23:00;0;2;4;2
21.10.2022 00:00;0;2;3;4
21.10.2022 01:00;0;0;1;0
21.10.2022 02:00;0;0;0;0
21.10.2022 03:00;0;1;0;0
21.10.2022 04:00;1;1;0;1
21.10.2022 05:00;11;7;7;6
21.10.2022 06:00;56;15;16;29
21.10.2022 07:00;92;55;10;65
21.10.2022 08:00;77;42;22;51
21.10.2022 09:00;39;31;12;40
21.10.2022 10:00;15;21;12;24
21.10.2022 11:00;28;38;11;14
21.10.2022 12:00;22;21;29;13
21.10.2022 13:00;41;50;27;27
21.10.2022 14:00;31;61;38;25
21.10.2022 15:00;68;82;42;27
21.10.2022 16:00;62;71;41;37
21.10.2022 17:00;41;66;50;30
21.10.2022 18:00;43;46;33;23
21.10.2022 19:00;21;21;18;22
21.10.2022 20:00;4;14;22;16
21.10.2022 21:00;2;6;11;6
21.10.2022 22:00;4;0;15;8
21.10.2022 23:00;6;2;7;3
22.10.2022 00:00;2;1;6;7
22.10.2022 01:00;4;1;3;10
22.10.2022 02:00;0;0;2;3
22.10.2022 03:00;2;1;0;2
22.10.2022 04:00;0;1;2;1
22.10.2022 05:00;3;4;4;3
22.10.2022 06:00;1;2;1;5
22.10.2022 07:00;5;11;4;5
22.10.2022 08:00;12;22;5;14
22.10.2022 09:00;36;57;9;21
22.10.2022 10:00;102;82;7;23
22.10.2022 11:00;90;120;17;27
22.10.2022 12:00;92;106;16;29
22.10.2022 13:00;84;73;27;12
22.10.2022 14:00;88;71;23;28
22.10.2022 15:00;91;67;24;31
22.10.2022 16:00;84;78;20;24
22.10.2022 17:00;65;52;32;19
22.10.2022 18:00;55;23;17;11
22.10.2022 19:00;16;8;16;13
22.10.2022 20:00;9;9;11;10
22.10.2022 21:00;8;3;11;10
22.10.2022 22:00;4;4;8;9
22.10.2022 23:00;2;1;3;3
23.10.2022 00:00;3;0;5;2
23.10.2022 01:00;1;0;3;5
23.10.2022 02:00;3;0;2;1
23.10.2022 03:00;0;1;2;3
23.10.2022 04:00;2;0;0;3
23.10.2022 05:00;1;1;3;0
23.10.2022 06:00;2;3;0;1
23.10.2022 07:00;4;2;4;4
23.10.2022 08:00;9;11;3;7
23.10.2022 09:00;32;30;3;25
23.10.2022 10:00;42;69;14;19
23.10.2022 11:00;71;105;20;13
23.10.2022 12:00;117;130;21;29
23.10.2022 13:00;107;110;31;29
23.10.2022 14:00;100;87;18;19
23.10.2022 15:00;85;108;29;22
23.10.2022 16:00;108;78;15;18
23.10.2022 17:00;80;55;21;21
23.10.2022 18:00;32;20;11;10
23.10.2022 19:00;11;5;10;2
23.10.2022 20:00;2;4;6;5
23.10.2022 21:00;3;4;9;6
23.10.2022 22:00;2;0;2;4
23.10.2022 23:00;1;0;5;3
24.10.2022 00:00;0;0;3;0
24.10.2022 01:00;0;0;0;1
24.10.2022 02:00;0;0;0;0
24.10.2022 03:00;1;0;0;1
24.10.2022 04:00;2;2;0;2
24.10.2022 05:00;10;10;6;7
24.10.2022 06:00;58;16;21;32
24.10.2022 07:00;119;49;29;78
24.10.2022 08:00;90;36;24;86
24.10.2022 09:00;47;33;22;34
24.10.2022 10:00;33;39;19;28
24.10.2022 11:00;38;47;19;24
24.10.2022 12:00;41;25;23;28
24.10.2022 13:00;34;58;44;21
24.10.2022 14:00;58;50;29;18
24.10.2022 15:00;68;61;30;35
24.10.2022 16:00;48;106;69;50
24.10.2022 17:00;44;59;53;34
24.10.2022 18:00;33;59;51;20
24.10.2022 19:00;15;21;20;14
24.10.2022 20:00;6;12;10;8
24.10.2022 21:00;5;2;9;1
24.10.2022 22:00;1;6;9;3
24.10.2022 23:00;1;1;5;5
25.10.2022 00:00;0;1;1;1
25.10.2022 01:00;0;1;0;0
25.10.2022 02:00;0;0;2;0
25.10.2022 03:00;0;1;2;1
25.10.2022 04:00;1;0;0;1
25.10.2022 05:00;14;8;3;7
25.10.2022 06:00;78;18;21;37
25.10.2022 07:00;122;54;27;76
25.10.2022 08:00;87;48;24;83
25.10.2022 09:00;49;31;20;52
25.10.2022 10:00;42;38;12;22
25.10.2022 11:00;68;67;15;37
25.10.2022 12:00;55;42;45;28
25.10.2022 13:00;60;71;37;36
25.10.2022 14:00;68;69;36;37
25.10.2022 15:00;69;98;53;38
25.10.2022 16:00;80;114;72;53
25.10.2022 17:00;69;115;75;46
25.10.2022 18:00;55;68;73;46
25.10.2022 19:00;34;46;31;25
25.10.2022 20:00;12;17;26;12
25.10.2022 21:00;7;13;25;8
25.10.2022 22:00;2;23;14;8
25.10.2022 23:00;1;6;5;5
26.10.2022 00:00;1;0;2;2
26.10.2022 01:00;0;0;1;0
26.10.2022 02:00;0;0;2;1
26.10.2022 03:00;0;1;0;0
26.10.2022 04:00;0;1;2;4
26.10.2022 05:00;13;11;6;8
26.10.2022 06:00;84;21;24;41
26.10.2022 07:00;125;68;25;82
26.10.2022 08:00;97;42;30;95
26.10.2022 09:00;59;40;12;50
26.10.2022 10:00;49;61;22;23
26.10.2022 11:00;68;73;28;24
26.10.2022 12:00;102;69;44;31
26.10.2022 13:00;65;103;40;39
26.10.2022 14:00;80;113;45;30
26.10.2022 15:00;100;111;46;48
26.10.2022 16:00;89;164;61;57
26.10.2022 17:00;124;146;79;49
26.10.2022 18:00;73;66;73;32
26.10.2022 19:00;43;29;38;19
26.10.2022 20:00;17;15;33;13
26.10.2022 21:00;8;12;22;11
26.10.2022 22:00;8;8;5;7
26.10.2022 23:00;2;1;10;6
27.10.2022 00:00;0;4;2;2
27.10.2022 01:00;0;0;1;0
27.10.2022 02:00;0;0;0;0
27.10.2022 03:00;1;0;1;1
27.10.2022 04:00;0;1;2;3
27.10.2022 05:00;9;15;2;5
27.10.2022 06:00;79;15;19;29
27.10.2022 07:00;117;65;25;85
27.10.2022 08:00;109;51;30;102
27.10.2022 09:00;70;33;25;54
27.10.2022 10:00;64;58;22;28
27.10.2022 11:00;89;77;32;29
27.10.2022 12:00;89;105;37;28
27.10.2022 13:00;92;98;44;36
27.10.2022 14:00;106;124;46;31
27.10.2022 15:00;127;131;47;50
27.10.2022 16:00;109;170;68;59
27.10.2022 17:00;104;137;72;55
27.10.2022 18:00;91;85;69;44
27.10.2022 19:00;28;46;38;21
27.10.2022 20:00;25;14;31;21
27.10.2022 21:00;13;13;27;13
27.10.2022 22:00;11;9;16;3
27.10.2022 23:00;2;2;8;4
28.10.2022 00:00;1;2;7;2
28.10.2022 01:00;0;2;0;0
28.10.2022 02:00;0;0;0;2
28.10.2022 03:00;0;1;0;1
28.10.2022 04:00;1;1;0;1
28.10.2022 05:00;10;13;2;8
28.10.2022 06:00;77;26;23;31
28.10.2022 07:00;114;58;21;63
28.10.2022 08:00;88;51;23;76
28.10.2022 09:00;45;44;18;54
28.10.2022 10:00;77;65;18;38
28.10.2022 11:00;71;83;37;35
28.10.2022 12:00;105;133;51;34
28.10.2022 13:00;108;158;67;45
28.10.2022 14:00;132;163;52;43
28.10.2022 15:00;154;166;58;45
28.10.2022 16:00;149;167;66;46
28.10.2022 17:00;137;110;45;42
28.10.2022 18:00;62;53;36;40
28.10.2022 19:00;26;30;25;23
28.10.2022 20:00;13;11;19;4
28.10.2022 21:00;7;21;18;9
28.10.2022 22:00;10;7;16;9
28.10.2022 23:00;5;7;7;7
29.10.2022 00:00;0;1;7;3
29.10.2022 01:00;2;5;3;4
29.10.2022 02:00;0;3;3;4
29.10.2022 03:00;0;0;3;1
29.10.2022 04:00;1;0;2;0
29.10.2022 05:00;2;2;2;6
29.10.2022 06:00;4;1;6;1
29.10.2022 07:00;6;4;4;10
29.10.2022 08:00;16;27;7;18
29.10.2022 09:00;23;48;9;12
29.10.2022 10:00;89;64;17;31
29.10.2022 11:00;129;111;22;30
29.10.2022 12:00;125;112;29;36
29.10.2022 13:00;119;171;25;32
29.10.2022 14:00;109;131;38;50
29.10.2022 15:00;126;134;21;24
29.10.2022 16:00;136;97;39;36
29.10.2022 17:00;128;83;24;21
29.10.2022 18:00;59;20;17;26
29.10.2022 19:00;20;15;12;19
29.10.2022 20:00;9;10;10;13
29.10.2022 21:00;3;5;9;7
29.10.2022 22:00;7;9;11;12
29.10.2022 23:00;0;4;9;6
30.10.2022 00:00;0;3;4;2
30.10.2022 01:00;2;1;7;10
30.10.2022 02:00;2;7;4;7
30.10.2022 03:00;0;1;1;2
30.10.2022 04:00;0;0;2;0
30.10.2022 05:00;1;3;3;2
30.10.2022 06:00;4;2;2;1
30.10.2022 07:00;8;14;5;4
30.10.2022 08:00;15;47;2;10
30.10.2022 09:00;63;87;6;22
30.10.2022 10:00;135;183;12;23
30.10.2022 11:00;193;213;13;22
30.10.2022 12:00;202;228;21;35
30.10.2022 13:00;238;239;25;56
30.10.2022 14:00;253;212;48;37
30.10.2022 15:00;261;161;24;35
30.10.2022 16:00;156;93;40;23
30.10.2022 17:00;101;62;25;47
30.10.2022 18:00;22;27;21;27
30.10.2022 19:00;13;12;30;13
30.10.2022 20:00;8;8;16;11
30.10.2022 21:00;3;6;6;5
30.10.2022 22:00;1;2;7;1
30.10.2022 23:00;1;2;4;0
31.10.2022 00:00;2;0;3;1
31.10.2022 01:00;0;0;1;1
31.10.2022 02:00;0;0;0;0
31.10.2022 03:00;0;2;0;1
31.10.2022 04:00;0;8;4;0
31.10.2022 05:00;8;8;5;5
31.10.2022 06:00;66;21;10;20
31.10.2022 07:00;93;60;24;47
31.10.2022 08:00;77;40;13;47
31.10.2022 09:00;66;46;12;31
31.10.2022 10:00;69;77;20;28
31.10.2022 11:00;91;97;23;43
31.10.2022 12:00;104;93;39;35
31.10.2022 13:00;91;74;27;29
31.10.2022 14:00;86;106;40;29
31.10.2022 15:00;127;112;42;44
31.10.2022 16:00;120;131;60;44
31.10.2022 17:00;76;89;48;52
31.10.2022 18:00;32;35;33;21
31.10.2022 19:00;16;29;20;20
31.10.2022 20:00;20;15;23;13
31.10.2022 21:00;8;9;8;5
31.10.2022 22:00;8;4;9;5
31.10.2022 23:00;1;0;6;4
01.11.2022 00:00;1;3;7;6
01.11.2022 01:00;4;2;7;2
01.11.2022 02:00;0;1;10;1
01.11.2022 03:00;0;3;2;0
01.11.2022 04:00;2;2;1;1
01.11.2022 05:00;2;0;2;3
01.11.2022 06:00;4;2;3;6
01.11.2022 07:00;7;6;5;7
01.11.2022 08:00;13;21;3;7
01.11.2022 09:00;31;47;3;10
01.11.2022 10:00;74;89;10;14
01.11.2022 11:00;134;123;11;12
01.11.2022 12:00;194;134;17;26
01.11.2022 13:00;160;175;23;23
01.11.2022 14:00;175;169;32;25
01.11.2022 15:00;151;156;23;43
01.11.2022 16:00;149;91;27;22
01.11.2022 17:00;106;52;17;22
01.11.2022 18:00;22;15;10;9
01.11.2022 19:00;7;11;14;13
01.11.2022 20:00;8;5;10;6
01.11.2022 21:00;5;4;7;9
01.11.2022 22:00;4;2;5;6
01.11.2022 23:00;0;0;2;3
02.11.2022 00:00;1;0;0;2
02.11.2022 01:00;0;0;0;0
02.11.2022 02:00;1;0;1;0
02.11.2022 03:00;1;2;0;1
02.11.2022 04:00;0;3;0;2
02.11.2022 05:00;13;11;5;5
02.11.2022 06:00;101;38;24;40
02.11.2022 07:00;152;59;33;88
02.11.2022 08:00;107;56;29;111
02.11.2022 09:00;72;49;20;49
02.11.2022 10:00;60;57;20;35
02.11.2022 11:00;50;62;20;38
02.11.2022 12:00;38;61;36;27
02.11.2022 13:00;64;80;35;22
02.11.2022 14:00;71;82;38;29
02.11.2022 15:00;90;105;49;39
02.11.2022 16:00;97;149;77;49
02.11.2022 17:00;88;114;73;44
02.11.2022 18:00;39;66;75;36
02.11.2022 19:00;26;25;33;26
02.11.2022 20:00;9;20;15;6
02.11.2022 21:00;3;5;18;8
02.11.2022 22:00;4;9;13;3
02.11.2022 23:00;0;4;5;2
03.11.2022 00:00;0;0;1;1
03.11.2022 01:00;2;1;0;0
03.11.2022 02:00;0;0;0;0
03.11.2022 03:00;0;1;1;0
03.11.2022 04:00;0;2;2;1
03.11.2022 05:00;9;12;4;7
03.11.2022 06:00;75;25;16;33
03.11.2022 07:00;122;65;20;81
03.11.2022 08:00;83;48;23;82
03.11.2022 09:00;52;32;15;47
03.11.2022 10:00;59;46;12;21
03.11.2022 11:00;44;39;21;21
03.11.2022 12:00;48;57;26;31
03.11.2022 13:00;45;60;33;22
03.11.2022 14:00;52;68;41;31
03.11.2022 15:00;68;93;55;44
03.11.2022 16:00;48;93;52;38
03.11.2022 17:00;38;57;41;25
03.11.2022 18:00;30;34;46;29
03.11.2022 19:00;15;22;19;16
03.11.2022 20:00;5;7;20;12
03.11.2022 21:00;7;12;17;4
03.11.2022 22:00;2;7;6;2
03.11.2022 23:00;0;1;2;2
04.11.2022 00:00;0;0;1;1
04.11.2022 01:00;1;1;2;1
04.11.2022 02:00;0;1;1;1
04.11.2022 03:00;0;1;0;0
04.11.2022 04:00;1;0;0;0
04.11.2022 05:00;14;7;4;4
04.11.2022 06:00;70;27;15;23
04.11.2022 07:00;85;48;16;59
04.11.2022 08:00;68;36;19;69
04.11.2022 09:00;28;30;18;30
04.11.2022 10:00;35;23;12;23
04.11.2022 11:00;28;21;20;23
04.11.2022 12:00;35;63;35;8
04.11.2022 13:00;45;56;42;14
04.11.2022 14:00;62;76;39;36
04.11.2022 15:00;54;79;47;35
04.11.2022 16:00;55;93;42;40
04.11.2022 17:00;43;49;41;37
04.11.2022 18:00;31;32;38;17